RH
76 77 70 71 75 84 85 81 78 73 75 75 71 68 66 67 67 71 79 65 62 58 53 53 50 51 54 57 59 61 63 67 71 82 91 91 90 89 90 87 88 90 90
77 76 70 68 71 77 85 87 83 80 84 77 71 68 67 68 69 70 73 77 63 61 59 56 54 51 54 56 58 60 63 66 70 80 87 91 89 90 90 88 91 90 89
73 76 74 74 70 76 80 85 88 87 82 74 72 72 72 71 73 71 71 68 71 63 61 59 57 52 52 55 58 59 62 64 68 76 86 92 91 91 89 87 89 91 90
70 78 76 76 74 77 81 83 90 86 83 82 81 79 79 76 73 72 71 69 72 66 64 63 61 53 53 53 57 60 61 64 68 75 85 93 89 90 89 89 90 91 90
71 79 78 78 77 79 81 81 89 85 84 83 81 80 79 80 78 63 70 70 72 70 72 63 60 61 56 52 56 60 62 64 68 74 84 92 86 89 90 89 90 91 91
71 80 81 80 81 83 81 87 88 92 86 84 69 72 83 81 85 90 85 71 76 73 73 71 77 74 62 54 56 58 62 65 66 71 83 92 87 90 89 89 91 92 91
65 74 83 84 83 85 80 81 88 88 93 94 91 86 89 83 87 89 89 88 83 73 76 74 76 79 75 56 58 61 62 63 67 70 78 86 87 89 90 92 92 92 90
71 68 75 82 85 89 87 86 90 94 94 96 94 96 90 80 84 75 83 86 87 81 74 67 72 72 78 80 76 66 62 61 63 69 79 93 91 90 90 92 92 91 90
73 72 74 79 81 89 89 87 88 93 94 96 93 94 98 92 92 75 74 79 78 88 84 76 72 73 75 78 72 73 72 73 64 71 83 93 91 89 90 92 91 90 90
74 75 76 75 78 85 88 86 79 89 95 96 98 88 88 91 96 89 73 76 79 72 76 82 83 76 70 76 70 75 82 82 75 70 90 95 88 92 90 93 91 90 90
79 77 77 77 79 86 84 82 86 93 93 96 98 99 98 96 93 98 92 76 77 76 76 73 73 84 73 74 76 76 84 84 76 74 92 87 85 89 92 94 91 90 89
82 78 72 78 80 83 84 84 85 90 95 95 95 97 97 95 95 94 90 81 82 82 77 74 77 81 82 77 69 74 86 86 84 79 92 93 88 91 95 93 90 89 89
76 73 70 76 78 82 86 90 96 98 97 98 98 98 93 90 96 89 94 92 91 74 76 79 80 77 68 84 84 82 87 91 88 91 96 93 91 93 96 95 90 89 88
71 68 72 74 80 82 83 90 98 98 98 99 99 98 95 92 88 87 90 97 90 81 82 80 76 73 72 78 79 84 95 94 96 97 99 96 95 97 98 95 91 89 88
66 64 74 84 81 97 97 98 98 99 99 99 99 99 99 98 93 88 91 91 88 96 87 84 76 70 75 72 81 94 95 96 98 98 100 99 96 98 98 96 93 92 90
71 76 76 80 99 98 99 100 99 99 99 99 99 99 98 98 94 91 89 91 90 86 84 85 74 71 70 67 84 95 96 96 98 98 100 100 100 99 98 97 96 95 93
74 81 94 97 99 100 100 99 99 98 98 98 98 97 98 95 97 94 90 85 95 86 84 89 93 90 76 68 99 98 96 96 98 98 100 100 100 100 99 98 97 95 95
79 99 97 100 100 99 99 99 98 97 96 96 96 97 97 97 98 94 92 91 89 90 87 85 88 89 88 81 94 93 92 91 96 97 100 100 100 100 100 99 98 97 95
96 97 98 100 98 98 99 99 99 98 94 97 96 96 96 98 97 98 94 91 93 81 91 89 90 96 95 97 93 92 98 98 94 97 100 100 100 100 99 98 97 96 96
98 97 98 99 98 98 99 99 99 99 98 98 98 95 92 98 91 96 89 90 89 96 94 91 89 91 96 95 88 93 97 97 98 93 99 99 99 99 98 98 97 96 97
97 98 98 98 98 99 100 100 100 100 99 98 98 97 88 93 82 81 88 89 90 94 94 94 94 91 97 97 86 95 95 98 98 98 98 98 98 97 98 96 96 96 97
97 97 98 98 98 100 98 98 100 100 100 98 97 97 89 90 73 72 78 81 83 90 91 96 95 93 94 93 90 95 95 98 99 98 97 99 96 99 96 88 98 98 98
94 97 97 98 98 99 94 98 100 100 100 99 97 97 96 91 82 83 82 86 84 84 89 90 90 91 96 96 94 96 92 98 98 97 90 98 96 98 98 98 100 100 100
93 98 98 98 97 99 99 100 100 100 100 99 98 97 98 97 87 85 83 86 91 89 89 87 89 89 98 94 88 92 94 96 97 95 83 98 96 98 98 98 99 100 100
92 97 98 98 97 98 97 98 99 99 98 98 98 96 94 90 86 78 80 93 92 93 88 87 90 94 96 96 95 93 95 93 98 99 95 93 99 98 98 98 97 98 98
96 96 96 98 98 98 97 97 98 96 93 90 86 86 80 85 77 77 89 91 92 95 94 94 90 91 96 96 98 87 91 92 95 97 98 95 100 98 99 99 98 98 97
Wind_Speed
3 3 2 1 1 1 1 2 2 3 2 2 3 3 5 5 5 3 3 13 12 12 11 12 10 9 9 10 9 9 10 10 9 10 14 20 16 13 14 17 21 20 20
4 4 3 3 2 2 2 2 2 3 2 1 1 3 4 5 5 5 4 5 14 11 11 13 13 9 9 10 10 10 10 10 9 9 12 19 17 15 17 18 22 21 20
6 6 4 4 4 3 2 1 1 2 2 1 3 3 3 4 4 5 5 5 6 12 12 11 15 12 11 11 12 10 10 11 9 9 10 16 17 17 19 19 22 22 20
6 5 4 4 4 3 3 2 3 3 3 3 3 4 4 4 6 6 5 5 4 4 9 12 13 11 12 10 11 12 11 11 9 9 10 18 18 20 19 20 22 22 21
5 5 5 5 5 4 3 3 3 3 3 3 4 4 4 4 6 6 5 6 7 6 4 10 12 13 13 9 9 11 12 12 10 9 9 13 20 21 21 22 23 22 21
6 5 5 5 4 4 4 3 5 4 4 4 3 4 4 6 4 4 5 6 5 6 5 5 4 6 13 9 8 10 12 12 10 9 8 12 20 21 22 24 23 22 22
4 4 4 5 5 5 7 6 4 6 4 3 1 3 3 6 5 4 4 5 6 6 5 5 4 4 4 10 8 8 10 12 11 7 10 12 22 22 24 24 24 24 23
4 4 5 6 6 5 6 6 5 3 3 4 3 1 4 4 3 3 3 2 6 4 4 5 5 5 4 2 4 8 9 10 10 7 6 11 24 24 25 25 24 24 23
6 6 6 5 5 4 5 6 6 7 5 4 6 5 1 3 3 3 3 2 4 2 4 4 5 5 5 4 4 6 9 8 8 6 10 13 26 23 27 26 25 24 24
7 7 7 6 7 4 6 6 7 6 5 5 2 5 2 5 3 3 2 3 3 4 4 2 3 4 4 3 5 5 5 5 5 6 14 22 28 26 25 26 25 25 24
7 7 7 7 7 5 7 9 7 7 7 5 5 3 2 1 2 3 3 2 3 3 3 3 3 1 2 3 3 4 4 2 2 2 10 29 28 27 27 27 26 25 24
6 8 10 8 7 7 8 8 8 9 9 8 6 5 5 6 6 4 6 4 3 4 3 3 2 3 2 1 3 5 3 3 3 3 7 26 28 27 26 26 27 26 25
5 9 10 9 7 8 7 6 6 8 8 9 10 7 6 8 4 6 5 2 2 1 2 2 2 3 2 3 2 3 4 5 6 6 7 22 27 23 22 26 25 26 25
9 10 10 10 8 7 8 12 10 10 11 10 13 12 10 9 7 6 6 4 3 2 1 3 2 3 2 2 3 4 4 5 7 7 8 19 25 21 20 24 24 24 24
8 9 8 7 5 10 12 13 8 9 10 7 8 10 6 7 7 8 6 4 4 4 4 3 1 3 2 3 3 4 4 6 7 5 4 18 21 20 20 20 20 21 21
8 8 7 11 8 9 9 8 9 9 8 7 6 11 10 8 10 9 8 5 3 3 3 3 2 2 3 3 2 4 5 6 7 6 5 19 19 20 21 20 18 17 17
8 7 12 10 8 10 9 10 9 8 10 10 9 10 8 14 9 9 9 7 4 3 3 1 1 2 2 2 4 4 4 3 4 7 4 19 19 20 22 19 19 18 17
6 8 10 9 9 10 9 8 9 8 11 11 11 11 11 8 10 12 9 10 8 4 3 3 1 3 2 1 4 6 4 4 4 3 8 19 18 22 22 20 19 18 17
9 10 10 10 11 11 8 7 8 8 10 10 12 13 12 13 13 9 10 9 8 6 4 3 1 2 1 1 3 4 5 4 4 2 12 21 19 22 21 20 18 19 17
10 11 11 11 12 11 9 7 7 7 8 9 11 13 13 10 15 13 11 10 9 6 4 3 2 1 1 2 5 6 4 2 3 3 9 16 19 23 20 19 18 18 15
12 12 11 12 11 9 5 5 5 6 9 10 12 13 14 15 21 16 9 11 11 7 6 4 2 1 0 5 9 3 3 4 4 3 9 9 12 12 11 15 15 16 18
12 12 12 12 11 6 11 9 4 3 7 12 13 13 14 22 22 23 20 15 12 9 8 4 2 2 2 4 5 5 6 8 5 5 9 11 10 8 8 10 14 15 20
13 13 13 13 10 11 18 14 9 4 7 11 15 14 13 11 17 15 18 17 13 11 8 5 5 3 3 4 5 6 8 2 7 9 17 9 9 10 8 8 14 16 19
13 12 13 14 12 13 20 17 13 9 10 12 16 16 14 16 14 15 15 13 9 8 7 4 5 3 4 5 8 4 8 13 10 8 13 7 5 8 8 10 20 16 18
12 11 12 14 15 16 24 19 11 12 13 16 16 16 15 16 21 23 15 13 11 6 7 7 3 3 7 6 8 9 10 14 8 6 7 7 3 7 7 10 11 22 20
12 10 12 14 19 16 23 20 12 10 14 13 14 16 22 17 24 23 12 12 12 6 6 4 1 3 1 12 8 9 11 11 11 8 3 7 2 3 6 5 8 8 10
Wind_Direction
181 167 168 166 133 111 212 285 331 337 360 45 48 14 350 338 335 326 317 327 331 312 283 278 271 259 253 252 252 255 261 274 287 315 310 155 169 165 152 150 143 140 138
189 187 193 209 191 178 209 218 248 260 193 135 347 327 317 307 311 310 302 311 312 317 304 278 277 265 259 251 248 248 253 266 281 307 333 167 164 155 150 152 143 141 140
204 189 198 215 215 189 198 190 253 145 157 266 276 291 282 282 284 283 283 284 292 297 295 294 273 261 255 256 251 245 249 262 274 296 311 182 164 154 154 153 148 141 141
207 204 205 229 222 199 193 188 170 193 221 236 264 276 271 276 269 262 263 269 263 276 287 292 296 269 267 243 253 246 244 253 264 274 291 182 161 158 154 152 145 141 142
233 213 222 238 220 212 210 198 191 182 213 245 251 256 271 271 264 273 257 261 263 262 264 281 289 293 283 227 244 249 245 248 251 264 276 193 167 160 152 150 145 143 140
238 221 236 245 227 218 227 214 207 208 206 229 269 283 278 271 260 249 246 256 255 249 254 264 278 286 282 224 240 249 249 247 248 251 270 205 168 156 159 148 142 139 137
268 242 243 245 227 214 222 201 196 208 238 218 321 303 290 276 273 264 246 236 246 248 242 250 259 262 276 240 234 248 245 245 248 243 267 213 172 166 147 141 141 142 140
253 244 237 239 227 213 219 213 185 190 223 186 163 119 332 329 340 312 320 234 245 241 241 244 251 252 244 212 235 261 252 250 247 252 286 200 160 154 150 145 144 144 143
258 265 266 248 249 214 224 210 191 185 201 214 206 153 31 245 314 320 325 1 348 271 224 247 262 239 232 209 233 264 267 269 265 289 279 254 159 156 148 146 148 145 144
278 268 254 240 237 221 215 214 210 196 160 192 199 238 200 147 162 326 314 324 355 21 49 15 308 234 213 214 239 256 251 263 254 283 302 166 156 155 152 145 146 145 145
264 258 256 250 243 221 223 222 218 199 196 181 175 156 201 129 121 132 283 337 330 13 20 341 342 354 229 236 239 272 239 182 267 298 297 168 155 153 153 152 147 147 147
265 258 253 240 232 226 229 226 225 214 198 202 191 176 160 177 193 174 222 256 298 309 332 340 7 22 28 55 268 247 195 134 104 37 314 148 144 148 150 152 147 148 146
266 259 257 247 233 220 210 198 205 223 210 201 203 201 209 189 151 188 184 209 230 328 332 323 9 11 20 61 349 9 139 101 77 45 322 151 141 143 152 147 149 148 146
267 274 268 258 226 219 251 252 224 227 227 217 219 213 216 208 183 175 184 156 174 233 331 308 331 345 309 64 22 82 96 90 87 42 318 149 141 142 152 147 148 146 146
279 283 281 251 253 257 262 239 225 217 210 205 205 194 187 176 185 182 177 162 158 165 221 305 309 322 307 50 23 99 113 108 81 50 127 132 140 144 142 139 139 141 142
283 279 287 289 257 268 262 237 247 205 199 200 198 205 191 189 189 187 186 177 152 135 172 196 283 303 355 27 27 110 108 109 94 47 28 124 131 141 132 127 131 132 132
278 289 302 290 271 267 260 238 226 208 202 196 182 187 189 184 192 171 175 182 173 132 126 86 284 342 23 39 61 81 98 69 90 72 149 132 130 133 125 126 128 128 126
280 304 316 306 286 274 269 243 233 218 206 197 185 176 179 185 179 172 167 174 187 153 126 122 359 23 68 38 122 121 105 92 99 67 148 125 129 131 127 131 127 126 126
300 318 311 305 306 298 287 257 235 220 213 195 179 174 175 189 175 153 163 167 167 164 119 114 89 17 44 99 129 115 94 70 93 123 134 132 135 135 129 126 127 126 129
326 320 318 312 311 305 289 261 236 216 200 182 166 167 167 170 158 158 158 164 167 136 121 115 97 359 32 152 139 134 117 150 143 79 140 140 140 129 121 123 121 123 128
332 321 320 319 316 304 286 244 214 193 182 166 159 161 162 163 163 161 153 166 156 143 143 122 110 118 178 154 156 108 119 116 103 129 122 129 123 121 122 113 115 124 123
333 333 327 328 328 327 18 42 88 164 159 156 152 153 160 165 171 168 161 161 156 152 147 124 145 141 169 133 145 137 152 117 148 123 101 78 91 77 118 124 119 131 116
340 339 338 343 348 5 31 33 72 89 115 142 143 145 150 155 153 156 152 139 151 131 119 125 155 195 93 130 133 143 159 151 93 115 107 74 80 68 48 53 118 112 109
345 341 346 355 6 17 25 37 66 82 87 105 132 138 140 140 147 148 146 143 140 136 143 169 172 138 45 141 150 139 124 102 85 82 107 92 74 72 61 54 42 93 102
350 351 357 7 17 23 28 39 66 89 89 96 113 126 129 131 143 146 146 141 138 143 154 152 163 325 334 143 131 132 117 104 105 58 36 97 49 89 55 43 39 56 75
357 2 8 17 21 27 32 46 72 96 99 102 110 119 128 138 147 150 146 143 141 143 127 124 163 287 28 131 112 126 117 119 121 103 6 94 146 115 77 24 31 31 65